Weather History for Driggs, ID

Change the Weather History Date:

Monday, March 19, 2012

  Actual Average (KRXE) Record (KRXE)
Temperature  
Mean Temperature 21 °F 36 °F  
Max Temperature 28 °F 46 °F 64 °F (2007)
Min Temperature 14 °F 25 °F 15 °F (2002)
Degree Days  
Heating Degree Days 44 29  
Month to date heating degree days 634  
Since 1 July heating degree days 6607  
Cooling Degree Days 0 0  
Month to date cooling degree days 0  
Year to date cooling degree days 0  
Moisture  
Dew Point 20 °F    
Average Humidity 84    
Maximum Humidity 93    
Minimum Humidity 63    
Precipitation  
Precipitation 0.00 in 0.03 in 0.27 in (2008)
Month to date precipitation 0.55  
Year to date precipitation 2.12  
Sea Level Pressure  
Sea Level Pressure 29.56 in    
Wind  
Wind Speed 11 mph (South)    
Max Wind Speed 18 mph    
Max Gust Speed -    
Visibility 4 miles    
Events Fog , Snow    
T = Trace of Precipitation, MM = Missing Value Source: NWS Daily Summary

Daily Weather History Graph

Daily Weather History Graph

Search for Another Location

Airport:

Trip Planner

Search our weather history database for the weather conditions in past years. The results will help you decide how hot, cold, wet, or windy it might be!

Date:

Astronomy

Mar. 19, 2012 Rise Set
Actual Time 7:28 AM MDT 7:36 PM MDT
Civil Twilight 6:59 AM MDT 8:04 PM MDT
Nautical Twilight 6:26 AM MDT 8:38 PM MDT
Astronomical Twilight 5:51 AM MDT 9:12 PM MDT
Moon 5:46 AM MDT (3/19) 5:04 PM MDT (3/19)
Length of Visible Light 13h 05m
Length of Day
12h 07m
Waning Crescent, 8% of the Moon is Illuminated
Mar 19
Waning Crescent
Mar 22
New
Mar 30
First Quarter
Apr 6
Full
Apr 13
Last Quarter

Hourly Weather History & Observations

Time (MDT) Temp. Windchill Dew Point Humidity Pressure Visibility Wind Dir Wind Speed Gust Speed Precip Events Conditions
12:03 AM 28.4 °F 19.1 °F 26.6 °F 93% 29.42 in 0.8 mi South 10.4 mph - 0.00 in Snow Light Snow
12:13 AM 28.4 °F 21.2 °F 26.6 °F 93% 29.42 in 1.0 mi SSW 6.9 mph - 0.00 in Snow Light Snow
12:18 AM 28.4 °F 21.2 °F 26.6 °F 93% 29.43 in 1.5 mi South 6.9 mph - 0.00 in Snow Light Snow
12:23 AM 28.4 °F 21.2 °F 26.6 °F 93% 29.43 in 3.0 mi South 6.9 mph - 0.00 in Snow Light Snow
12:43 AM 26.6 °F 17.5 °F 24.8 °F 93% 29.42 in 10.0 mi SSE 9.2 mph - 0.00 in   Mostly Cloudy
12:56 AM 27.1 °F 18.2 °F 23.0 °F 84% 29.38 in 10.0 mi South 9.2 mph - 0.00 in   Mostly Cloudy
1:23 AM 26.6 °F 14.3 °F 23.0 °F 86% 29.41 in 2.0 mi SSW 16.1 mph - N/A   Mostly Cloudy
1:25 AM 26.6 °F 14.3 °F 24.8 °F 93% 29.41 in 1.2 mi SSW 16.1 mph - 0.00 in   Overcast
1:29 AM 26.6 °F 15.2 °F 24.8 °F 93% 29.41 in 0.8 mi SSW 13.8 mph - 0.00 in Snow Light Snow
1:37 AM 26.6 °F 14.7 °F 24.8 °F 93% 29.41 in 0.8 mi SSW 15.0 mph - 0.00 in Snow Light Snow
1:42 AM 26.6 °F 15.7 °F 24.8 °F 93% 29.41 in 1.2 mi SSW 12.7 mph - 0.00 in Snow Light Snow
1:47 AM 26.6 °F 15.7 °F 24.8 °F 93% 29.42 in 2.0 mi South 12.7 mph - 0.00 in Snow Light Snow
2:06 AM 26.6 °F 19.1 °F 24.8 °F 93% 29.42 in 2.5 mi South 6.9 mph - 0.00 in Snow Light Snow
2:16 AM 26.6 °F 16.8 °F 24.8 °F 93% 29.42 in 6.0 mi South 10.4 mph - 0.00 in Snow Light Snow
2:27 AM 26.6 °F 19.1 °F 24.8 °F 93% 29.42 in 10.0 mi South 6.9 mph - 0.00 in   Mostly Cloudy
2:56 AM 25.2 °F 17.3 °F 23.0 °F 91% 29.37 in 10.0 mi SSE 6.9 mph - 0.00 in   Overcast
3:56 AM 26.1 °F 16.2 °F 23.0 °F 88% 29.38 in 10.0 mi South 10.4 mph - N/A   Mostly Cloudy
4:37 AM 24.8 °F 12.9 °F 19.4 °F 80% 29.43 in 10.0 mi SW 13.8 mph - N/A   Mostly Cloudy
4:56 AM 25.2 °F 13.9 °F 20.1 °F 81% 29.42 in 8.0 mi SSW 12.7 mph - N/A   Overcast
5:05 AM 24.8 °F 14.0 °F 21.2 °F 86% 29.44 in 5.0 mi SSW 11.5 mph - 0.00 in Snow Light Snow
5:25 AM 24.8 °F 16.1 °F 21.2 °F 86% 29.44 in 2.5 mi South 8.1 mph - 0.00 in Snow Light Snow
5:34 AM 24.8 °F 16.1 °F 21.2 °F 86% 29.44 in 3.0 mi South 8.1 mph - 0.00 in Snow Light Snow
5:37 AM 24.8 °F 14.6 °F 21.2 °F 86% 29.44 in 2.5 mi South 10.4 mph - 0.00 in Snow Light Snow
5:48 AM 24.8 °F 15.3 °F 21.2 °F 86% 29.44 in 2.0 mi South 9.2 mph - 0.00 in Snow Light Snow
5:56 AM 24.1 °F 13.7 °F 21.0 °F 88% 29.43 in 2.5 mi South 10.4 mph - 0.00 in Snow Light Snow
6:34 AM 24.8 °F 12.9 °F 21.2 °F 86% 29.44 in 4.0 mi South 13.8 mph - 0.00 in Snow Light Snow
6:49 AM 24.8 °F 12.9 °F 19.4 °F 80% 29.45 in 3.0 mi SSW 13.8 mph - 0.00 in   Haze
6:56 AM 25.2 °F 12.9 °F 20.1 °F 81% 29.43 in 6.0 mi South 15.0 mph - 0.00 in   Haze
7:56 AM 24.1 °F 11.0 °F 19.0 °F 81% 29.46 in 3.0 mi South 16.1 mph - N/A   Haze
8:05 AM 23.0 °F 9.2 °F 19.4 °F 86% 29.46 in 2.5 mi South 17.3 mph - N/A   Overcast
8:27 AM 23.0 °F 8.7 °F 19.4 °F 86% 29.47 in 3.0 mi South 18.4 mph - N/A   Mostly Cloudy
8:31 AM 23.0 °F 9.2 °F 19.4 °F 86% 29.48 in 2.5 mi South 17.3 mph - 0.00 in Snow Light Snow
8:47 AM 21.2 °F 7.3 °F 17.6 °F 86% 29.49 in 1.5 mi South 16.1 mph - 0.00 in Snow Light Snow
9:09 AM 21.2 °F 7.8 °F 17.6 °F 86% 29.50 in 1.0 mi South 15.0 mph - 0.00 in Snow Light Snow
9:19 AM 21.2 °F 8.3 °F 17.6 °F 86% 29.50 in 0.5 mi South 13.8 mph - 0.00 in Fog , Snow Light Snow
9:26 AM 21.2 °F 8.3 °F 19.4 °F 93% 29.51 in 0.2 mi South 13.8 mph - 0.00 in Fog , Snow Light Snow
9:34 AM 21.2 °F 8.3 °F 17.6 °F 86% 29.51 in 0.5 mi South 13.8 mph - 0.00 in Fog , Snow Light Snow
9:41 AM 21.2 °F 8.3 °F 17.6 °F 86% 29.51 in 0.5 mi South 13.8 mph - 0.00 in Fog , Snow Light Snow
9:56 AM 22.1 °F 10.0 °F 18.1 °F 85% 29.53 in 1.0 mi South 12.7 mph - 0.00 in Snow Light Snow
10:13 AM 21.2 °F 8.9 °F 17.6 °F 86% 29.53 in 0.5 mi SSE 12.7 mph - 0.00 in Fog , Snow Light Snow
10:44 AM 23.0 °F 11.7 °F 19.4 °F 86% 29.55 in 1.0 mi South 11.5 mph - 0.00 in Snow Light Snow
10:56 AM 23.0 °F 12.4 °F 19.0 °F 85% 29.56 in 1.5 mi South 10.4 mph - 0.00 in Snow Light Snow
10:59 AM 23.0 °F 13.1 °F 19.4 °F 86% 29.55 in 1.0 mi South 9.2 mph - 0.00 in Snow Light Snow
11:05 AM 23.0 °F 11.7 °F 19.4 °F 86% 29.55 in 0.5 mi South 11.5 mph - 0.00 in Fog , Snow Light Snow
11:29 AM 23.0 °F 12.4 °F 19.4 °F 86% 29.57 in 0.5 mi South 10.4 mph - 0.00 in Fog , Snow Light Snow
11:41 AM 24.8 °F 14.6 °F 19.4 °F 80% 29.57 in 0.8 mi South 10.4 mph - 0.00 in Snow Light Snow
11:56 AM 24.1 °F 13.1 °F 20.1 °F 85% 29.58 in 0.8 mi South 11.5 mph - 0.00 in Snow Light Snow
12:07 PM 24.8 °F 14.6 °F 19.4 °F 80% 29.58 in 1.0 mi SSE 10.4 mph - 0.00 in Snow Light Snow
12:18 PM 24.8 °F 15.3 °F 19.4 °F 80% 29.58 in 0.8 mi South 9.2 mph - 0.00 in Snow Light Snow
12:21 PM 24.8 °F 16.1 °F 19.4 °F 80% 29.58 in 1.0 mi South 8.1 mph - 0.00 in Snow Light Snow
12:46 PM 24.8 °F 16.9 °F 19.4 °F 80% 29.59 in 1.5 mi South 6.9 mph - 0.00 in Snow Light Snow
12:56 PM 25.2 °F 16.5 °F 20.1 °F 81% 29.60 in 0.5 mi South 8.1 mph - 0.00 in Snow Snow
1:04 PM 24.8 °F 17.9 °F 19.4 °F 80% 29.59 in 0.5 mi South 5.8 mph - 0.00 in Snow Snow
1:28 PM 24.8 °F 19.1 °F 21.2 °F 86% 29.60 in 1.0 mi Variable 4.6 mph - 0.00 in Snow Light Snow
1:30 PM 26.6 °F 20.0 °F 21.2 °F 80% 29.60 in 1.5 mi Variable 5.8 mph - 0.00 in Snow Light Snow
1:34 PM 26.6 °F 18.2 °F 19.4 °F 74% 29.60 in 3.0 mi South 8.1 mph - 0.00 in Snow Light Snow
1:42 PM 26.6 °F 20.0 °F 21.2 °F 80% 29.60 in 10.0 mi South 5.8 mph - 0.00 in   Overcast
1:56 PM 25.2 °F 18.3 °F 21.0 °F 84% 29.62 in 10.0 mi South 5.8 mph - 0.00 in   Overcast
2:56 PM 27.1 °F 18.9 °F 19.0 °F 72% 29.64 in 10.0 mi SW 8.1 mph - N/A   Overcast
3:49 PM 26.6 °F 17.5 °F 21.2 °F 80% 29.65 in 3.0 mi SW 9.2 mph - 0.00 in   Overcast
3:56 PM 26.1 °F 19.4 °F 21.0 °F 81% 29.67 in 0.8 mi SW 5.8 mph - 0.00 in Snow Light Snow
4:05 PM 26.6 °F 18.2 °F 21.2 °F 80% 29.65 in 1.2 mi South 8.1 mph - 0.00 in Snow Light Snow
4:07 PM 26.6 °F 16.8 °F 21.2 °F 80% 29.66 in 2.0 mi South 10.4 mph - 0.00 in Snow Light Snow
4:16 PM 26.6 °F 16.2 °F 21.2 °F 80% 29.66 in 10.0 mi South 11.5 mph - 0.00 in   Mostly Cloudy
4:37 PM 26.6 °F 16.8 °F 21.2 °F 80% 29.67 in 10.0 mi South 10.4 mph - 0.00 in   Mostly Cloudy
4:56 PM 27.1 °F 15.4 °F 20.1 °F 75% 29.69 in 10.0 mi SSW 15.0 mph - 0.00 in   Mostly Cloudy
5:18 PM 26.6 °F 15.2 °F 21.2 °F 80% 29.68 in 2.5 mi South 13.8 mph - 0.00 in   Mostly Cloudy
5:29 PM 26.6 °F 14.7 °F 21.2 °F 80% 29.68 in 6.0 mi South 15.0 mph - 0.00 in   Haze
5:46 PM 24.8 °F 12.9 °F 21.2 °F 86% 29.70 in 1.8 mi SSW 13.8 mph - 0.00 in   Overcast
5:48 PM 24.8 °F 13.4 °F 21.2 °F 86% 29.70 in 0.5 mi SSW 12.7 mph - 0.00 in Fog Light Freezing Fog
5:56 PM 25.2 °F 15.1 °F 22.1 °F 88% 29.73 in 0.2 mi South 10.4 mph - 0.00 in Fog , Snow Light Snow
6:33 PM 24.8 °F 16.1 °F 21.2 °F 86% 29.72 in 0.5 mi South 8.1 mph - 0.00 in Fog , Snow Light Snow
6:42 PM 24.8 °F 15.3 °F 21.2 °F 86% 29.72 in 1.0 mi South 9.2 mph - 0.00 in Snow Light Snow
6:46 PM 24.8 °F 16.1 °F 21.2 °F 86% 29.72 in 1.5 mi South 8.1 mph - 0.00 in Snow Light Snow
6:56 PM 25.2 °F 16.5 °F 22.1 °F 88% 29.75 in 4.0 mi South 8.1 mph - 0.00 in Snow Light Snow
7:11 PM 26.6 °F 16.8 °F 19.4 °F 74% 29.74 in 7.0 mi SSW 10.4 mph - 0.00 in   Overcast
7:56 PM 24.1 °F 13.7 °F 17.1 °F 75% 29.80 in 10.0 mi SSW 10.4 mph - 0.00 in   Overcast
8:56 PM 23.0 °F 12.4 °F 12.0 °F 63% 29.86 in 10.0 mi SSW 10.4 mph - N/A   Mostly Cloudy
9:56 PM 17.1 °F 5.0 °F 8.1 °F 68% 29.91 in 10.0 mi SSE 10.4 mph - N/A   Clear
10:56 PM 14.0 °F 2.9 °F 5.0 °F 67% 29.94 in 10.0 mi SE 8.1 mph - N/A   Clear
11:56 PM 14.0 °F 1.2 °F 5.0 °F 67% 29.96 in 10.0 mi South 10.4 mph - N/A   Clear